Location: Azul
(36.7830°S, 59.8500°W)
Time: 04:24:12
(UTC-03:00)

ISS - Pass Details

Date: 28 April 2017
Orbit: 401 x 409 km, 51.6° (Epoch: 29 April)

Event Time Altitude Azimuth Distance (km) Brightness Sun altitude
Rises 19:35:04 0° 317° (NW) 2,327 0.8 -16.2°
Reaches altitude 10° 19:37:09 10° 319° (NW) 1,474 -0.3 -16.6°
Maximum altitude 19:40:27 70° 43° (NE) 443 -3.9 -17.2°
Enters shadow 19:41:06 52° 106° (ESE) 526 -3.7 -17.4°
